Погода в Манино

Россия / Липецкая область     52°08′25″N   39°20′21″E
темп.,
°C
ветер,
м/с
пор.,
м/с
влажн.,
%
обл.,
%
осадки,
мм/ч
давл.,
гПа
погр.,
м
21 января, пт
пт2100:00−10ю61694100 0.1 1012431
03:00−8ю61595100 0.6 1010469
06:00−7ююв61595100 0.8 1007499
09:00−7ююв71595100 2.8 1006587
12:00−5ююв61495100 1.2 1004593
15:00−2ю51197100 1.6 1002658
18:00−2юз5109379 1.2 1003746
21:00−7ююз5129268 1.3 1004306
22 января, сб
сб2200:00−7ю6149389 0.0 1005425
03:00−7ю61293100 0.1 1006430
06:00−10ю5119699 0.1 1007263
09:00−9ю4109596 0.1 1008270
12:00−7ююз499396 0.2 1010344
15:00−6ю379481 0.2 1011340
18:00−7ююв3796100 0.2 1013197
21:00−8ююв269699 0.3 1015158
23 января, вс
вс2300:00−9ююв2597100 0.1 101792
03:00−15ююв1110099 0.2 10199
06:00−14вюв119886 0.1 102128
09:00−17в11100100 0.1 102310
12:00−9всв2395100 0.0 1025147
15:00−7св3695100 0.0 1026240
18:00−10св41095100 0.0 1027220
21:00−9ссв5129395 0.0 1028282
24 января, пн
пн2400:00−7ссв51395100 0.1 1027366
03:00−9св51494100 0.0 1030328
06:00−8св51295100 0.2 1030337
09:00−7св51195100 0.4 1031380
12:00−5св51094100 0.1 1031452
15:00−5всв499198 0.1 1031459
18:00−10св389649 0.0 1032132
21:00−11св3896100 0.0 1032137
25 января, вт
вт2500:00−14св369763 0.0 103271
03:00−16св249864 0.0 103250
06:00−19св2210056 0.0 103126
09:00−19всв239985 0.0 103150
12:00−10вюв249011 0.0 1029176
15:00−8в239164 0.0 1027176
18:00−15в229963 0.0 102710
21:00−18юв1110094 0.0 10279